Content
SEND FEEDBACK

Daily
Averages
Monthly
Summary
United States of America

WATERLOO, ALABAMA


Home > North America > United States > Alabama
Elevation: 45 feet     Latitude: 34 55N     Longitude: 088 04W

WEATHER
 
SELECT A DAY
Number of Records: 201,419;   Date Range: 1/1/95 - 8/12/14
 
SHARE

PRINT THIS DATA

[ ← Previous Day ]
WEATHER ALMANAC - FEBRUARY 13, 2013
[ Next Day → ]
[ °C ]   °F
Weather ElementAverageHighLow
Temperature44.2 °F46.4 °F (9:06 am)39.9 °F (5:53 pm)
Dewpoint38.7 °F42.8 °F (2:09 am)33.1 °F (5:53 pm)
Humidity81.3 %93 % (2:09 am)65 % (3:53 pm)
Barometer29.86 in30.06 in (10:53 pm)29.73 in (2:53 am)
Wind Speed7.7 mph18.4 mph (9:17 am)
Wind Gust26.5 mph (9:17 am)
Weather ElementAverage
Visibility7.3 mi
Wind DirectionWSW (242.5 °)

Weather ElementTotal
Precipitation0.02 in
Heating Degree Days21.9 (Base 65)
Averaged from 44 records on February 13, 2013
WEATHER CONDITIONS BREAKOUT
WIND DIRECTION BREAKOUT
WEATHER BY HOUR - FEBRUARY 13, 2013
[ °C ]   °F
Local TimeTemperatureDewpointHumidityBarometerVisibilityWind DirectionWind SpeedGust SpeedPrecipitationEventsConditions
1:22 AM44.6 °F41.0 °F87 %29.77 in4.0 miSE (130°)4.6 mph0.00 inOvercast
1:29 AM44.6 °F41.0 °F87 %29.76 in3.0 miSE (130°)3.5 mph0.00 inOvercast
1:39 AM44.6 °F41.0 °F87 %29.76 in2.5 miCalm0.00 inOvercast
1:53 AM44.1 °F41.0 °F89 %29.75 in2.5 miCalm0.01 inOvercast
2:09 AM44.6 °F42.8 °F93 %29.75 in3.0 miCalmOvercast
2:53 AM44.1 °F42.1 °F93 %29.73 in4.0 miCalmOvercast
3:18 AM44.6 °F41.0 °F87 %29.73 in2.5 miCalmOvercast
3:45 AM44.6 °F41.0 °F87 %29.73 in3.0 miCalmOvercast
3:53 AM44.1 °F41.0 °F89 %29.74 in4.0 miWest (260°)4.6 mphOvercast
4:13 AM44.6 °F41.0 °F87 %29.74 in2.5 miWest (270°)4.6 mphOvercast
4:37 AM44.6 °F41.0 °F87 %29.73 in3.0 miWest (280°)3.5 mphOvercast
4:53 AM44.1 °F41.0 °F89 %29.74 in3.0 miWest (260°)5.8 mphOvercast
5:09 AM44.6 °F41.0 °F87 %29.75 in4.0 miWest (270°)4.6 mphOvercast
5:18 AM44.6 °F41.0 °F87 %29.75 in4.0 miWest (270°)6.9 mphOvercast
5:37 AM44.6 °F41.0 °F87 %29.77 in2.5 miWest (270°)10.4 mphOvercast
5:50 AM44.6 °F41.0 °F87 %29.77 in3.0 miWest (270°)8.1 mphOvercast
5:53 AM44.1 °F41.0 °F89 %29.77 in3.0 miWest (260°)10.4 mphOvercast
6:53 AM45.0 °F41.0 °F86 %29.79 in10.0 miWSW (250°)13.8 mphOvercast
7:03 AM44.6 °F41.0 °F87 %29.80 in10.0 miWSW (250°)11.5 mphOvercast
7:53 AM45.0 °F41.0 °F86 %29.81 in10.0 miWest (260°)13.8 mphOvercast
8:10 AM44.6 °F41.0 °F87 %29.82 in9.0 miWest (270°)16.1 mph21.9 mphOvercast
8:53 AM46.0 °F41.0 °F83 %29.86 in10.0 miWest (270°)13.8 mphOvercast
9:06 AM46.4 °F41.0 °F81 %29.85 in10.0 miWest (280°)10.4 mphOvercast
9:17 AM44.6 °F41.0 °F87 %29.86 in9.0 miWNW (290°)18.4 mph26.5 mph0.00 inRainLight Rain
9:53 AM45.0 °F39.0 °F80 %29.88 in10.0 miWNW (300°)18.4 mph0.01 inOvercast
10:00 AM44.6 °F39.2 °F81 %29.88 in10.0 miWNW (300°)15.0 mph24.2 mphOvercast
10:08 AM44.6 °F39.2 °F81 %29.88 in10.0 miNW (310°)9.2 mph21.9 mphOvercast
10:26 AM46.4 °F37.4 °F71 %29.88 in10.0 miNW (310°)10.4 mphMostly Cloudy
10:53 AM46.0 °F37.9 °F73 %29.90 in10.0 miNW (320°)16.1 mphMostly Cloudy
11:53 AM44.1 °F36.0 °F73 %29.91 in10.0 miNNW (330°)12.7 mphOvercast
12:53 PM44.1 °F35.1 °F71 %29.92 in10.0 miNNW (330°)9.2 mph18.4 mphOvercast
1:53 PM43.0 °F35.1 °F74 %29.94 in10.0 miNNW (330°)9.2 mphOvercast
2:53 PM44.1 °F35.1 °F71 %29.96 in10.0 miNNW (340°)10.4 mphOvercast
3:53 PM45.0 °F34.0 °F65 %29.97 in10.0 miNW (320°)9.2 mphOvercast
4:53 PM45.0 °F35.1 °F68 %29.97 in10.0 miNNW (340°)3.5 mphOvercast
5:37 PM41.0 °F33.8 °F76 %29.98 in10.0 miWNW (290°)6.9 mphScattered Clouds
5:53 PM39.9 °F33.1 °F77 %29.99 in10.0 miWest (280°)4.6 mphClear
6:23 PM42.8 °F33.8 °F70 %29.99 in10.0 miNW (310°)3.5 mphMostly Cloudy
6:53 PM42.1 °F35.1 °F76 %30.01 in10.0 miNW (310°)3.5 mphOvercast
7:53 PM43.0 °F36.0 °F76 %30.02 in10.0 miWNW (300°)4.6 mphOvercast
8:53 PM43.0 °F36.0 °F76 %30.04 in10.0 miWest (280°)6.9 mphOvercast
9:53 PM43.0 °F35.1 °F74 %30.05 in10.0 miWNW (290°)8.1 mphOvercast
10:53 PM43.0 °F34.0 °F71 %30.06 in10.0 miWest (280°)4.6 mphOvercast
11:53 PM41.0 °F35.1 °F79 %30.06 in10.0 miWest (260°)5.8 mphMostly Cloudy
Hourly data recorded from KMSL, located miles away from Waterloo, Alabama







STORIES FROM OUR PARTNERS